{"data":{"norad_id":58681,"intl_designator":"2023-211Q","name":"STARLINK-31147","alt_names":[],"object_type":"PAYLOAD","status":"ACTIVE","operator":null,"country":"US","launch_date":"2023-12-29","launch_site_code":"AFETR","launch_vehicle":null,"mission":null,"orbit_class":"UNKNOWN","rcs_meters":null,"size_class":null,"mass_kg":null,"dimensions":null,"purposes":["comms"],"wikipedia_slug":null,"has_3d_model":false,"image_url":null,"decayed_at":null,"tle_current":{"epoch":"2026-05-24T23:59:45.699072Z","epoch_age_seconds":71243,"freshness":"FRESH","line1":"1 58681U 23211Q   26144.99983448  .00003037  00000+0  11981-3 0  9993","line2":"2 58681  43.0026  14.4612 0001395 276.6134  83.4559 15.27592225134136","mean_motion":15.27592225,"eccentricity":0.0001395,"inclination_deg":43.0026,"raan_deg":14.4612,"arg_perigee_deg":276.6134,"mean_anomaly_deg":83.4559,"bstar":0.00011981,"rev_number":13413,"period_min":94.265994316644,"perigee_km":482.05535988197,"apogee_km":483.96962058975,"semimajor_km":6861.1494902359,"source":"CELESTRAK","updated_at":"2026-05-25T13:38:18.712871Z"}}}